www.pogodaiklimat.ru

Архив погоды в Пуэнт-Нуаре (Конго)

Время
(UTC), дата
18 5.04
21 5.04
00 6.04
03 6.04
06 6.04
09 6.04
15 6.04
18 6.04
21 6.04
00 7.04
03 7.04
06 7.04
09 7.04
12 7.04
15 7.04
18 7.04
21 7.04
00 8.04
03 8.04
06 8.04
09 8.04
12 8.04
15 8.04
18 8.04
21 8.04
00 9.04
03 9.04
06 9.04
09 9.04
15 9.04
18 9.04
21 9.04
00 10.04
03 10.04
06 10.04
09 10.04
12 10.04
15 10.04
18 10.04
21 10.04
00 11.04
03 11.04
06 11.04
09 11.04
12 11.04
15 11.04
18 11.04
21 11.04
00 12.04
03 12.04
06 12.04
09 12.04
12 12.04
15 12.04
Ветер
(напр.,м/с)
Видим. Явления Облачность Т
(С)
Тd
(С)
f
(%)
Тe
(С)
Тes
(С)
Комфортность P
(гПа)
Po
(гПа)
Тmin
(С)
Tmax
(С)
R
(мм)
R24
(мм)
S
(см)
ЮЗ 3 10 км 5/3 300 м
[Cb cap Ac lent Ci ing]
+29.2 +26.3 84 +44 +44 очень душно 1008.5 1006.5 +33.2
Ю 2 10 км 8/3 300 м
[Cb cap Ac trans]
+28.5 +26.7 89 +46 +46 очень душно 1010.3 1008.3
Ю 3 10 км 8/6 300 м
[Cb cap Ac trans]
+28.0 +27.0 94 +44 +44 очень душно 1009.0 1007.1
ЮВ 1 8000 м 10/8 240 м
[Cb cap Ac As]
+27.9 +26.9 94 +44 +44 очень душно 1009.6 1007.6
нст 1 8000 м 9/1 240 м
[Cb cap Ac As]
+27.0 +27.0 100 +42 +42 очень душно 1011.0 1009.1 +26.6
Ю 5 10 км 9/9 400 м
[Cb cap Ac As]
+30.0 +26.0 79 +45 +47 очень душно 1012.0 1010.1
ЮЗ 5 10 км 2/2 450 м +31.0 +27.0 79 +48 +51 очень душно 1007.0 1005.1
ЮЗ 3 10 км 2/2 450 м +29.0 +27.0 89 +46 +46 очень душно 1009.0 1007.1
штиль 0 10 км зарница 8/6 300 м
[Cb cap Ac As]
+28.8 +27.0 90 +45 +45 очень душно 1011.0 1009.0
В 1 н/о гроза без осадков 5/5 300 м
[Cb]
+26.0 +24.0 89 +36 +36 очень душно 1010.0 1008.1
В 2 8000 м гроза без осадков 9/6 300 м
[Cb cap Ac As]
+27.1 +26.0 94 +41 +41 очень душно 1009.6 1007.6
ЮВ 1 8000 м гроза без осадков {дождь} 9/5 300 м
[Cb cap Ac As]
+26.7 +25.4 89 +39 +39 очень душно 1010.7 1008.7 +25.5 0.0
В 4 10 км гроза без осадков 8/8 450 м
[Cb cap Ac As]
+30.0 +26.0 79 +45 +47 очень душно 1012.0 1010.1
ЮЗ 5 10 км в посл. час гроза {дождь} 8/6 480 м
[Cb cap Ac trans]
+31.0 +26.0 75 +46 +52 очень душно 1011.0 1009.1 0.2
ЮЗ 5 10 км 8/4 450 м
[Cb cap As op Ci ing]
+30.0 +26.0 79 +45 +47 очень душно 1007.0 1005.1
Ю 3 10 км зарница 6/6 300 м
[Cb cap]
+28.2 +25.8 89 +42 +42 очень душно 1009.1 1007.1 +31.7 0.2
Ю 2 10 км зарница 6/6 300 м
[Cb cap Ac lent Ci sp]
+27.0 +25.6 92 +40 +40 очень душно 1010.9 1008.9
СВ 2 8000 м зарница 6/6 300 м
[Cb cap Ac lent Ci sp]
+27.0 +25.6 94 +40 +40 очень душно 1010.6 1008.6
С 1 8000 м зарница 9/3 300 м
[Cb cap Ac As]
+26.0 +25.0 94 +37 +37 очень душно 1009.7 1007.7
В 1 8000 м гроза без осадков 9/4 300 м
[Cb cap Ac As]
+26.1 +24.8 94 +37 +38 очень душно 1010.6 1008.6 +25.1 0.2 0.2
В 4 10 км в посл. час гроза {дождь} 9/1 300 м
[Cb cap Ac As]
+29.0 +26.0 84 +44 +49 очень душно 1011.0 1009.1 0.0
С 4 10 км гроза без осадков {дождь} 9/4 500 м
[Cb cap Ac trans]
+32.0 +25.0 67 +46 +54 очень душно 1009.8 1007.8 0.0
СЗ 5 10 км в посл. час гроза 6/4 600 м
[Cb cap Ac trans]
+33.0 +24.0 59 +45 +46 очень душно 1007.0 1005.1
штиль 0 10 км {гроза} 5/1 300 м
[Cu hum Ac trans]
+28.0 +24.7 84 +40 +40 очень душно 1007.6 1005.6 +32.9 0.0
Ю 1 8000 м 1/1 300 м
[Cu hum]
+26.5 +25.1 92 +38 +38 очень душно 1009.8 1007.8
В 1 8000 м 4/4 300 м
[Cu Sc]
+26.4 +25.6 95 +39 +39 очень душно 1009.3 1007.3
В 1 8000 м 4/4 300 м
[Cu Sc]
+26.0 +25.3 94 +37 +37 очень душно 1008.3 1006.3
В 1 10 км 9/5 300 м
[Cb cap Ac trans]
+26.0 +25.3 94 +37 +38 очень душно 1009.5 1007.5 +25.0 0.0
Ю 2 15 км 9/5 450 м
[Cb cap Ac trans Ci sp]
+30.7 +25.8 75 +46 +50 очень душно 1011.7 1009.7
ЮЗ 3 10 км гроза без осадков 2/2 420 м
[Cb]
+31.0 +25.0 70 +44 +48 очень душно 1007.0 1005.1
ЮЗ 2 10 км {гроза} 9/5 400 м
[Cb cap Ac trans Ci ing]
+28.0 +26.0 89 +42 +42 очень душно 1007.0 1005.1 +32.7
Ю 2 8000 м 3/3 300 м
[Cu hum]
+28.0 +25.0 84 +40 +40 очень душно 1009.0 1007.1
ЮВ 1 8000 м 4/4 300 м
[Cu Sc]
+26.7 +25.7 94 +40 +40 очень душно 1009.1 1007.1
В 1 8000 м 1/1 700 м
[Sc]
+25.8 +24.7 94 +37 +37 очень душно 1007.8 1005.8
нст 1 8000 м 3/1 300 м
[Cu hum Ac lent]
+25.0 +25.0 100 +36 +36 очень душно 1009.0 1007.1 +23.9
ЮВ 3 10 км 6/3 450 м
[Cb cap Ac trans Ci sp]
+31.0 +23.9 66 +43 +49 очень душно 1010.2 1008.2
Ю 5 15 км 4/1 600 м
[Cb cap Ac trans Ci sp]
+32.0 +25.0 67 +46 +54 очень душно 1009.0 1007.1
ЮЗ 5 10 км 3/1 450 м
[Cb cap Ci sp]
+31.0 +26.0 75 +46 +49 очень душно 1006.0 1004.1
Ю 4 10 км 4/1 450 м
[Cb cap Ci ing]
+28.5 +25.7 85 +42 +42 очень душно 1006.2 1004.2 +32.8
Ю 2 10 км 1/1 300 м
[Cb cap]
+27.2 +25.9 93 +41 +41 очень душно 1008.9 1006.9
Ю 2 10 км 9/9 300 м
[Cb cap]
+27.0 +25.6 92 +40 +40 очень душно 1009.3 1007.3
В 2 8000 м 5/5 300 м
[Cu hum]
+27.0 +24.9 88 +39 +39 очень душно 1008.7 1006.7
ЮВ 2 8000 м 8/8 300 м
[Cu Sc]
+26.5 +24.8 90 +38 +38 очень душно 1009.7 1007.7 +25.0
Ю 6 10 км 9/5 480 м
[Cu med, cong Ac lent Ci sp]
+30.5 +24.7 71 +43 +45 очень душно 1011.0 1009.0
Ю 5 15 км 9/3 480 м
[Cu med, cong Ac trans Ci sp]
+32.0 +24.1 63 +44 +48 очень душно 1009.2 1007.2
Ю 6 15 км 9/3 480 м
[Cb calv Ci sp]
+30.8 +25.1 72 +45 +46 очень душно 1007.0 1005.0
ЮЗ 3 10 км 6/3 300 м
[Cu hum Ci sp]
+27.8 +26.0 90 +42 +42 очень душно 1008.5 1006.5 +32.8 0.0
Ю 2 10 км 5/4 300 м
[Cu Sc Ci sp]
+27.2 +26.2 94 +41 +41 очень душно 1010.3 1008.3
ЮВ 2 10 км 5/5 300 м
[Cu Sc]
+26.9 +26.2 96 +41 +41 очень душно 1010.1 1008.1
ЮВ 2 8000 м 10/10 300 м
[Cu Sc]
+26.4 +25.7 96 +39 +39 очень душно 1009.3 1007.3
ЮВ 3 8000 м 9/9 300 м
[Cu Sc]
+26.0 +25.0 94 +37 +38 очень душно 1010.0 1008.1 +24.5
Ю 4 15 км 9/4 600 м
[Cb cap Ac trans Cs]
+30.0 +26.0 79 +45 +47 очень душно 1012.0 1010.1
Ю 6 15 км 9/4 600 м
[Cb cap Ac trans Cs]
+32.0 +24.2 63 +44 +47 очень душно 1010.0 1008.0
Ю 5 15 км 6/1 600 м
[Cb cap Ac lent Cs]
+31.5 +23.7 63 +43 +45 очень душно 1007.3 1005.3
Местоположение метеостанции Пуэнт-Нуар (Конго): широта -4.82 долгота 11.90 высота над уровнем моря 17 м.
В архиве по умолчанию представлена погода в Пуэнт-Нуаре за последнюю неделю. Архивные данные за месяц целиком и за предыдущие месяцы, начиная с января 2011 года, Вы можете получить, выбрав интересующий диапазон дат из раскрывающегося списка и нажав кнопку "Найти!".
*Определитесь, кто Вы:
Внимание! Время в таблицах - всемирное. Для получения местного времени необходимо прибавить поправку, которая равна 1 ч.
Некоторые строки с данными для отдельных станций могут быть выделены курсивом. Это означает, что фактические данные отсутствуют по различным причинам, а приведенные значения являются расчетными модельными данными для данного пункта наблюдений.
Смотрите также архив погоды в соседних городах и на ближайших метеорологических станциях:
Партнеры нашего сайта:      
Пояснения к столбцам:
  • Ветер - указаны скорость ветра в м/с - средняя за 10 мин, порывы в срок и между сроками (в фигурных скобках) и направление, откуда дует ветер: С - северный,
  • СВ - северо-восточный, В - восточный, ЮВ - юго-восточный, Ю - южный, ЮЗ - юго-западный, З - западный, СЗ - северо-западный.
  • Видимость - горизонтальная дальность видимости в метрах или километрах. При видимости от 1 до 10 км при отсутствии осадков обычно наблюдается дымка, при ухудшении видимости до 1 км и менее - туман. В сухую погоду видимость может ухудшаться дымом, пылью или мглою.
  • Явления - указаны атмосферные явления, наблюдавшиеся в срок или в последний час перед сроком; фигурными скобками обозначены явления, наблюдавшиеся между сроками (за 1-3 часа до срока); квадратными скобками обозначены град или гололедные отложения с указанием их диаметра в мм.
  • Облачность - указаны через наклонную черту общая и нижняя облачность в баллах и высота нижней границы облаков в метрах; квадратными скобками обозначены формы облаков: Ci - перистые, Cs - перисто-слоистые, Cc - перисто-кучевые, Ac - высококучевые, As - высокослоистые, Sc - слоисто-кучевые, Ns - слоисто-дождевые, Cu - кучевые, Cb - кучево-дождевые. Подробнее классификацию облаков см. в Атласе облаков (PDF).
  • T - Температура воздуха - температура, измеренная на высоте 2 м над землей.
  • Td - Температура точки росы - температура, при понижении до которой содержащийся в воздухе водяной пар достигнет насыщения.
  • f - Относительная влажность воздуха - влажноcть воздуха, измеренная на высоте 2 м над землей.
  • Te - Эффективная температура - температура, которую ощущает одетый по сезону человек в тени. Характеристика душности погоды. При расчете учитывается влияние влажности воздуха и скорости ветра на теплоощущения человека.
  • Tes - Эффективная температура на солнце - температура, которую ощущает человек, с поправкой на солнечный нагрев. Характеристика знойности погоды. Зависит от высоты солнца над горизонтом, облачности и скорости ветра. Ночью, в пасмурную погоду, а также при ветре 12 м/с и более поправка равна нулю.
  • P - Атмосферное давление - приведенное к уровню моря атмосферное давление.
  • Po - Атмосферное давление - измеренное на уровне метеостанции атмосферное давление.
  • Tmin - Минимальная температура - минимум температуры воздуха на высоте 2 м над землей.
  • Tmax - Максимальная температура - максимум температуры воздуха на высоте 2 м над землей.
  • R - Количество осадков - Количество выпавших осадков за период времени, мм. При наведении курсора мыши на число - период времени, за который выпало указанное количество осадков.
  • R24 - Количество осадков - Количество выпавших осадков за 24 часа, мм.
  • S - Снежный покров - Высота снежного покрова, см. При наведении курсора мыши на число - состояние снежного покрова и степень покрытия местности в баллах.